OBJECT E

Satellite information

Favourite Embed

Satellite Type and Status

UNKNOWNIN ORBIT

Key statistics

Satellite OBJECT E at a glance.

Uptime

2332

Days in orbit

Revolutions

≈ 15.3

Per day

Orbit

LEO

Low Earth Orbit

Inclination

45.0

Latest

Satellite identification and parameters

Extended collection of information and parameters for OBJECT E.

Object identification

Identified? True

Debris? False

Object name: OBJECT E

International designator: 2019-032E

Object number (NORAD): 44314

Object ID (CCSDS): 44314

Country: PEOPLES REPUBLIC OF CHINA (PRC)

Current information (Y/N): Y

RCS size: MEDIUM

Orbital parameters

Period: 94.175 minutes

Inclination: 45.0014 deg

SMA: 6856.751 km

Apoapsis: 486.419 km

Periapsis: 470.812 km

RAAN: 208.186 deg

Eccentricy: 0.00113804

Argument of periapsis: 54.5154 deg

Mean anomaly: 305.679 deg

Mean motion: 15.29062446 rev/day

Mean motion (dot): 0.00023194 rev/day2

B* drag term: 0.0008131201 1/REarth

Two-line elements (TLE)

Creation date: Oct. 23, 2025, 2:46 a.m.

Reference frame: TEME

Reference center: EARTH

Epoch: Oct. 22, 2025, 9:48 p.m. UTC

TLE line 0: 0 OBJECT E

TLE line 1: 1 44314U 19032E 25295.90894363 .00023194 00000-0 81312-3 0 9993

TLE line 2: 2 44314 45.0014 208.1860 0011380 54.5154 305.6790 15.29062446351631

Live tracking on map

Real-time ground track for satellite OBJECT E.

In-orbit conjunctions

There are no conjunctions computed for OBJECT E, at the moment. Check back to stay up to date, as we update our databases every day.

Go to all conjunctions

Associated space launch

The first sea launch of Long March 11 rocket. It carries 7 satellites, which include a new high-resolution Earth observation satellite Jilin-1 and several test satellites, verifying such technologies as sea surface wind measuring and satellite interlink communication.

OBJECT E was lifted into orbit during the mission ‘Long March 11 | Jilin-1 & others’, on board a Long March 11 space rocket.

The launch took place on June 5, 2019, 4:06 a.m. from Tai Rui mobile launch platform.

For more information about the launch, click the button.

Launch to space Long March 11 | Jilin-1 & others
Long March 11 | Jilin-1 & others

Agency: N/A

Status: Launch Successful

Launch date: June 5, 2019, 4:06 a.m. UTC

Rocket: Long March 11

Launch pad: Tai Rui mobile launch platform

Location: Sea Launch

...

Latest news about this satellite

There are no fresh news available about this satellite. Check back as we update our databases every day.


Newsletter sign-up

Weekly statistics, charts and insights to help you stay on top of the space industry.